Вернуться в каталог

THOR ABLESTAR DEB

АктивенLEO
NORAD 13942·DEBRIS·🇺🇸 United States

Запущен Jun 29, 1961 с Cape Canaveral Space Force Station

Loading…

Ближайшие Пролёты (ближайшие 24 часа)

TLE

СвежийSource: Space-Track

Эпоха: Sep 14, 2026, 03:57 UTC

1 13942U 61015KZ  26257.16470848  .00000572  00000-0  13072-2 0  9991
2 13942  65.8605 157.5141 0392852 231.2068 285.3258 13.07679054 80278

Отслеживайте THOR ABLESTAR DEB в реальном времени с AllMySat

Download on the App Store